Wind_Speed
37 37 38 39 39 41 42 44 44 43 44 44 45 45 45 46 46 45 45 44 44 44 43 43 42 41 41 41 41 41 40 40 40 40 39 39 40 40 41 42 43 44 45
37 37 37 37 38 39 41 43 43 43 44 44 44 45 44 46 46 45 44 44 44 43 42 42 41 41 41 40 40 40 40 40 40 39 38 38 39 41 42 43 44 45 46
37 36 35 36 37 39 40 41 43 42 42 44 44 44 44 45 46 45 44 44 43 43 41 41 40 40 40 41 41 40 39 39 38 38 38 39 40 41 42 43 44 45 46
36 36 36 36 37 37 38 40 41 40 41 42 42 43 44 44 44 43 42 43 43 43 41 40 40 39 39 40 39 38 38 37 38 39 39 40 41 41 42 43 43 44 45
35 35 36 37 38 38 38 39 40 39 40 41 41 42 43 44 43 42 42 42 42 41 40 40 40 39 39 39 38 38 37 37 38 39 40 40 41 41 42 42 43 44 45
34 34 34 37 38 37 37 38 40 39 40 40 41 41 42 42 42 42 42 42 42 41 40 38 39 40 39 39 38 38 37 38 39 39 40 41 40 41 42 43 43 44 44
34 35 35 36 37 38 38 38 38 38 40 39 41 41 41 41 41 41 42 42 42 41 40 39 39 38 38 38 37 37 37 39 39 39 39 39 40 41 41 42 42 43 44
35 36 38 38 37 38 38 38 38 38 38 39 40 41 40 40 40 41 41 41 41 40 39 39 38 37 37 37 36 37 37 37 38 39 39 39 40 41 42 43 43 43 44
33 35 37 39 38 38 39 39 40 39 39 39 38 40 40 40 40 41 40 40 39 38 38 37 37 35 35 35 35 35 36 36 37 38 39 39 39 40 41 43 43 44 44
31 33 35 36 37 38 38 39 39 40 40 39 38 39 38 38 38 39 39 38 38 36 35 35 35 34 34 34 34 34 35 36 36 37 38 38 39 40 40 41 42 43 43
30 31 33 34 36 37 39 40 39 39 39 38 38 38 38 37 36 37 37 37 36 35 34 34 34 33 32 32 33 34 35 36 36 37 37 38 38 38 39 40 40 40 41
29 30 31 33 35 36 38 38 38 39 39 39 38 38 38 37 36 36 36 35 34 33 32 33 33 32 32 32 33 34 34 36 36 36 36 36 37 37 38 38 39 39 40
27 28 29 31 33 34 35 37 37 38 38 37 38 38 38 37 37 36 35 35 34 34 34 33 33 33 33 32 33 33 33 34 34 34 34 35 35 36 37 37 38 38 40
27 27 28 30 31 33 34 36 37 37 37 37 38 38 38 36 36 35 34 34 33 34 35 34 34 33 33 32 32 33 34 33 33 32 32 33 34 35 36 36 37 37 38
27 28 29 29 30 31 33 34 35 36 36 36 37 38 38 37 36 35 34 34 33 32 32 33 34 34 32 31 32 33 33 33 32 31 32 33 34 34 34 34 35 35 36
28 28 28 29 29 30 31 32 33 35 35 35 36 36 37 37 37 37 36 35 34 33 32 32 33 32 31 31 31 31 31 31 31 32 32 32 32 32 33 33 33 33 34
27 27 27 28 29 29 29 31 32 34 34 34 34 35 35 36 37 36 36 36 35 35 34 32 31 31 31 31 30 30 30 31 31 31 31 31 31 31 32 32 32 32 32
27 26 26 27 28 29 29 30 31 33 33 34 34 34 35 36 36 36 36 36 36 35 34 32 31 31 30 30 30 30 30 30 31 31 30 30 29 30 30 30 30 31 31
27 26 26 27 28 28 28 29 30 31 31 32 33 33 33 33 33 33 34 34 34 34 33 32 32 31 30 29 29 29 29 29 29 29 28 28 28 28 29 29 29 30 30
26 26 26 27 28 28 28 29 29 30 30 30 31 31 31 32 31 31 32 32 33 33 32 31 31 30 29 29 28 28 28 27 27 27 26 26 26 27 28 28 28 29 29
24 24 25 26 27 27 28 28 28 28 28 29 29 29 29 30 31 31 31 32 32 32 31 31 29 28 28 28 27 26 26 25 24 24 25 26 26 27 27 27 27 27 27
22 23 24 25 26 26 27 27 27 27 27 27 28 28 28 29 30 31 31 31 32 31 31 30 29 28 27 26 25 25 24 23 23 23 23 24 24 25 25 25 25 25 25
22 23 23 24 25 25 26 27 27 27 27 27 28 28 28 28 29 30 30 30 31 30 30 30 29 27 26 25 24 23 23 22 22 22 22 22 22 23 23 23 23 23 23
23 22 23 24 25 25 25 26 26 26 27 27 28 28 28 28 28 28 28 29 29 29 28 28 28 27 25 24 23 22 21 20 20 20 21 21 21 21 20 21 21 21 22
23 23 23 24 25 26 26 26 26 26 26 28 27 27 27 27 27 27 27 26 27 27 27 27 27 26 24 23 22 21 20 19 19 19 19 19 19 19 19 19 19 19 20
23 23 23 23 25 26 26 26 26 26 26 27 27 27 28 27 26 26 26 26 25 26 26 26 25 24 23 22 20 19 19 18 17 17 17 17 17 17 17 17 17 18 19
Wind_Direction
249 247 246 246 244 243 240 238 236 235 236 236 235 234 235 233 234 236 238 240 242 243 244 246 247 249 250 254 257 260 264 266 269 271 274 276 279 282 285 289 292 295 298
249 249 246 245 243 241 239 237 236 235 235 234 234 234 233 233 233 236 239 240 241 241 243 246 247 248 249 253 257 261 263 266 269 271 273 276 280 282 286 289 293 295 297
250 249 246 246 244 240 238 237 235 235 235 233 233 233 232 232 233 236 240 240 240 241 243 245 246 248 250 253 257 260 263 267 269 271 274 277 281 283 286 289 293 295 297
249 248 247 246 243 240 239 236 233 234 233 231 231 232 232 233 234 237 239 240 241 241 243 245 247 248 250 252 256 259 263 266 269 271 274 278 281 283 286 290 293 295 298
251 249 247 245 243 241 238 236 235 235 232 231 232 232 233 234 235 237 239 240 241 241 244 246 248 249 250 252 255 260 263 266 270 272 275 278 281 283 286 290 292 295 297
251 250 247 244 242 240 239 238 235 234 233 233 233 233 235 236 237 238 238 239 240 241 244 246 247 249 251 253 255 260 263 267 270 272 275 277 279 282 286 289 291 295 298
253 250 246 244 242 240 240 240 238 236 234 234 235 235 234 236 238 239 238 239 240 241 244 246 248 250 252 253 257 261 264 268 270 271 274 277 279 282 286 289 292 295 299
254 249 246 244 242 240 239 240 239 236 234 233 234 234 235 237 238 239 237 238 240 242 245 247 247 250 252 255 260 262 265 269 271 273 275 277 280 283 286 290 293 296 298
253 248 246 243 241 240 241 240 238 236 234 233 234 234 235 237 239 241 241 240 240 243 245 247 248 251 253 257 259 262 266 268 270 272 274 277 281 284 287 291 293 296 298
253 248 245 243 242 241 241 239 238 236 235 235 234 234 236 238 239 240 240 238 239 241 243 246 249 252 255 257 259 262 266 269 272 274 276 278 281 284 288 292 294 296 298
253 250 246 245 243 242 241 240 239 238 236 234 233 234 235 237 238 237 237 237 240 242 242 245 249 252 255 258 260 262 266 270 272 275 278 280 281 284 288 292 295 298 299
253 250 246 244 242 241 240 240 239 237 236 233 233 234 235 236 237 237 237 238 239 240 241 244 248 252 255 257 260 264 267 271 274 276 279 281 283 286 289 292 295 297 300
253 250 246 243 241 239 239 239 239 236 234 233 234 234 235 237 236 235 236 237 240 240 241 243 248 252 253 256 261 265 269 272 275 277 280 282 285 288 290 293 295 297 301
253 251 248 245 243 241 239 237 236 234 232 233 233 234 235 236 237 238 239 239 239 239 240 244 248 251 254 259 263 267 269 270 273 277 281 284 286 289 291 293 295 299 302
253 252 250 247 244 241 238 235 234 232 232 232 232 234 236 237 238 240 240 240 241 242 244 246 249 251 254 259 263 267 269 271 274 277 281 285 287 289 291 293 296 300 303
253 252 249 247 244 242 238 234 232 232 232 232 233 234 236 237 237 238 239 241 242 245 248 249 249 250 254 258 263 267 269 271 273 277 281 285 288 289 291 295 298 301 303
251 249 247 243 241 240 237 233 231 232 233 232 232 234 236 237 237 237 239 242 244 246 247 247 249 251 255 259 262 265 267 270 273 276 280 284 287 289 291 294 298 301 303
250 248 245 241 239 238 235 233 231 231 232 231 231 233 236 237 239 239 240 243 245 245 247 248 250 253 256 258 260 264 267 269 272 275 280 284 288 291 292 294 297 300 304
248 247 245 240 237 237 236 234 233 233 232 231 231 232 235 236 237 239 240 242 243 245 245 247 249 252 254 256 259 262 265 268 271 274 278 283 288 292 294 295 298 301 305
247 247 243 238 236 234 232 233 234 234 232 231 231 231 234 235 236 238 239 240 241 242 243 245 247 249 252 255 258 262 264 267 269 272 276 281 287 291 293 296 299 302 306
246 244 240 236 233 232 232 234 234 233 233 232 231 231 233 234 235 236 238 240 240 240 241 243 245 246 249 253 256 260 263 266 267 271 276 281 285 289 293 297 300 304 307
242 240 237 234 234 233 233 233 233 232 232 233 232 232 233 234 235 236 240 241 239 238 240 242 244 245 247 249 254 258 262 266 269 273 278 281 285 288 292 298 302 305 307
239 238 236 234 232 232 231 230 230 231 232 234 234 234 233 234 235 236 239 240 238 237 237 239 241 242 243 247 251 256 260 265 269 272 276 281 285 288 292 299 304 306 308
239 238 236 234 233 233 232 229 230 232 233 233 234 233 232 233 235 236 236 235 234 234 234 235 236 238 241 245 248 253 259 263 266 270 275 281 286 288 291 298 303 306 310
239 239 238 236 234 233 233 232 232 233 233 232 233 231 229 230 231 231 230 231 232 233 233 233 235 237 239 242 246 252 258 262 265 270 276 282 284 286 291 296 300 306 312
238 239 239 238 235 233 232 233 232 232 232 231 231 229 226 226 227 227 227 230 231 230 230 231 233 235 235 238 244 250 254 258 264 268 275 280 283 287 292 295 300 306 312
Height
5552 5554 5557 5559 5562 5566 5570 5574 5579 5584 5589 5595 5600 5606 5612 5619 5625 5632 5638 5643 5649 5654 5660 5664 5668 5671 5675 5678 5681 5683 5684 5686 5687 5688 5688 5687 5686 5684 5682 5679 5676 5673 5669
5543 5545 5547 5550 5553 5556 5560 5565 5570 5575 5580 5586 5591 5597 5603 5610 5617 5623 5629 5634 5640 5645 5650 5654 5658 5661 5665 5669 5671 5673 5675 5676 5677 5678 5678 5678 5676 5675 5672 5670 5667 5663 5659
5535 5536 5539 5542 5545 5548 5552 5556 5561 5566 5571 5577 5582 5589 5595 5602 5608 5614 5620 5626 5630 5636 5641 5645 5649 5652 5656 5659 5662 5664 5665 5666 5667 5668 5668 5668 5667 5665 5663 5660 5657 5653 5649
5526 5528 5531 5534 5537 5540 5544 5548 5552 5557 5563 5569 5575 5581 5587 5593 5599 5605 5611 5616 5621 5627 5631 5636 5640 5643 5647 5650 5652 5654 5655 5657 5657 5658 5659 5658 5657 5656 5654 5651 5648 5644 5640
5518 5520 5522 5526 5529 5532 5536 5540 5544 5549 5555 5561 5566 5572 5578 5584 5590 5596 5602 5608 5613 5618 5622 5627 5631 5634 5638 5640 5643 5645 5646 5647 5648 5649 5649 5649 5648 5646 5644 5641 5638 5634 5630
5510 5512 5514 5517 5521 5524 5528 5532 5536 5541 5547 5552 5557 5563 5569 5575 5581 5587 5592 5598 5604 5609 5614 5618 5621 5625 5628 5631 5633 5635 5637 5638 5639 5639 5640 5639 5638 5636 5634 5631 5628 5625 5621
5501 5503 5506 5509 5512 5516 5520 5524 5528 5533 5538 5544 5549 5555 5561 5567 5572 5577 5583 5589 5595 5600 5604 5608 5612 5616 5618 5621 5624 5625 5627 5628 5629 5630 5630 5629 5628 5627 5625 5622 5618 5614 5610
5493 5495 5497 5500 5504 5508 5512 5516 5520 5525 5530 5536 5541 5547 5552 5558 5563 5569 5574 5580 5586 5590 5595 5599 5603 5606 5609 5612 5614 5616 5618 5619 5620 5620 5620 5619 5618 5616 5614 5611 5607 5604 5599
5484 5486 5489 5492 5495 5499 5503 5507 5512 5517 5522 5528 5533 5539 5544 5550 5555 5560 5565 5571 5576 5581 5585 5589 5593 5597 5600 5602 5605 5607 5609 5610 5610 5610 5610 5609 5607 5606 5604 5601 5598 5594 5590
5476 5478 5480 5483 5487 5490 5494 5499 5503 5508 5514 5519 5524 5530 5536 5542 5547 5552 5557 5562 5568 5573 5577 5580 5584 5588 5591 5593 5596 5598 5600 5600 5600 5600 5600 5599 5598 5596 5594 5591 5587 5583 5579
5468 5470 5472 5475 5478 5482 5486 5490 5495 5499 5505 5510 5516 5522 5528 5534 5539 5544 5548 5554 5559 5564 5568 5572 5577 5580 5582 5585 5587 5589 5590 5591 5591 5591 5591 5590 5588 5586 5584 5581 5577 5574 5569
5460 5462 5464 5467 5470 5473 5477 5481 5486 5491 5496 5502 5508 5514 5520 5525 5531 5535 5541 5546 5551 5556 5560 5565 5568 5571 5574 5576 5578 5580 5581 5581 5582 5582 5581 5580 5578 5577 5574 5571 5568 5564 5560
5452 5454 5456 5458 5462 5465 5469 5473 5477 5482 5488 5494 5500 5506 5512 5517 5522 5527 5532 5537 5542 5547 5551 5556 5559 5562 5565 5568 5569 5570 5571 5572 5573 5573 5572 5571 5569 5567 5565 5562 5558 5555 5551
5444 5446 5448 5450 5454 5457 5461 5464 5469 5474 5480 5485 5491 5497 5503 5509 5514 5519 5523 5528 5533 5538 5542 5546 5550 5553 5556 5559 5561 5562 5562 5563 5563 5563 5563 5561 5559 5557 5555 5552 5549 5546 5542
5437 5438 5440 5443 5446 5449 5453 5456 5461 5466 5472 5478 5483 5489 5495 5501 5506 5511 5515 5520 5524 5529 5533 5537 5541 5545 5548 5550 5551 5553 5553 5554 5554 5554 5553 5552 5550 5548 5546 5543 5540 5537 5533
5429 5431 5433 5435 5438 5441 5445 5449 5453 5458 5464 5469 5475 5480 5486 5492 5497 5502 5507 5511 5516 5520 5524 5529 5533 5536 5539 5541 5543 5544 5544 5545 5545 5545 5544 5543 5541 5540 5537 5535 5532 5528 5525
5422 5423 5425 5427 5430 5434 5438 5442 5446 5451 5456 5461 5466 5472 5477 5483 5488 5493 5498 5503 5507 5511 5515 5520 5524 5527 5530 5532 5534 5535 5536 5536 5537 5536 5536 5534 5533 5531 5529 5527 5524 5520 5517
5413 5415 5418 5420 5423 5427 5430 5434 5439 5444 5448 5453 5458 5463 5469 5474 5479 5484 5489 5494 5498 5502 5506 5511 5515 5518 5521 5523 5524 5526 5527 5528 5528 5528 5527 5526 5524 5523 5521 5518 5516 5512 5509
5406 5408 5410 5413 5416 5419 5423 5427 5432 5436 5441 5445 5450 5455 5460 5465 5470 5475 5480 5485 5489 5493 5497 5501 5505 5509 5511 5513 5515 5517 5518 5519 5520 5519 5519 5518 5517 5515 5513 5511 5508 5505 5502
5398 5400 5402 5405 5409 5412 5416 5420 5425 5429 5433 5438 5442 5447 5451 5456 5462 5466 5471 5475 5480 5484 5488 5492 5496 5499 5502 5505 5507 5509 5510 5511 5511 5511 5511 5510 5509 5508 5506 5504 5501 5498 5495
5390 5393 5395 5398 5402 5405 5409 5413 5418 5422 5426 5430 5435 5439 5444 5448 5453 5457 5462 5466 5471 5475 5480 5483 5487 5490 5493 5496 5499 5500 5502 5502 5503 5503 5503 5503 5502 5501 5499 5497 5494 5491 5488
5384 5386 5388 5392 5395 5399 5402 5406 5411 5415 5419 5423 5427 5431 5435 5440 5444 5449 5453 5457 5462 5466 5471 5475 5478 5482 5485 5488 5491 5492 5494 5495 5495 5496 5496 5495 5495 5494 5492 5490 5488 5485 5482
5377 5380 5382 5385 5388 5392 5395 5400 5404 5408 5412 5416 5420 5424 5428 5432 5436 5441 5445 5449 5453 5458 5462 5466 5470 5474 5477 5480 5483 5485 5487 5488 5488 5489 5489 5488 5488 5487 5486 5484 5482 5480 5477
5371 5373 5376 5378 5382 5385 5389 5393 5397 5401 5404 5409 5413 5417 5421 5425 5429 5433 5437 5441 5445 5450 5454 5458 5462 5466 5470 5473 5476 5478 5479 5481 5481 5482 5482 5482 5481 5481 5479 5478 5476 5474 5472
5364 5366 5369 5372 5375 5378 5382 5386 5390 5394 5397 5401 5405 5410 5414 5418 5422 5426 5430 5434 5438 5443 5447 5451 5456 5459 5463 5466 5469 5471 5472 5474 5474 5475 5475 5476 5475 5474 5474 5472 5471 5469 5467
5356 5359 5361 5364 5368 5371 5375 5379 5383 5387 5391 5395 5399 5403 5407 5412 5416 5420 5424 5428 5432 5436 5440 5445 5449 5453 5456 5459 5462 5464 5466 5467 5468 5469 5469 5470 5469 5469 5468 5467 5466 5464 5462